Location: Borough Park
(40.6340°N, 73.9968°W)
Time: 07:54:49
(UTC+00:00)

Daily predictions for brighter satellites

Satellite Brightness Start Highest point End
(mag) Time Altitude Azimuth Time Altitude Azimuth Time Altitude Azimuth
STARLINK-1117 4.2 23:40:02 10° NW 23:43:58 44° NNE 23:47:53 10° ESE
STARLINK-1095 3.0 23:41:58 10° NW 23:45:04 62° NE 23:48:08 10° ESE
STARLINK-1077 3.0 23:42:24 10° NW 23:45:31 63° NE 23:48:35 10° ESE
STARLINK-1075 3.0 23:42:52 10° NW 23:45:58 64° NE 23:49:04 10° ESE
Abrixas rocket 2.1 23:43:26 10° SW 23:46:18 51° SE 23:49:12 10° ENE
STARLINK-1093 3.0 23:43:16 10° NW 23:46:24 65° NE 23:49:32 10° ESE
STARLINK-1074 3.0 23:43:43 10° NW 23:46:51 65° NE 23:49:58 10° ESE
STARLINK-1087 2.9 23:44:12 10° NW 23:47:19 66° NE 23:50:24 10° ESE
STARLINK-1088 2.9 23:44:39 10° NW 23:47:45 66° NE 23:50:51 10° ESE
STARLINK-1115 2.9 23:45:04 10° NW 23:48:13 68° NE 23:51:21 10° ESE
STARLINK-1076 2.9 23:45:31 10° NW 23:48:39 68° NE 23:51:46 10° ESE
STARLINK-1078 4.1 23:44:48 10° NW 23:48:47 48° NNE 23:52:45 10° ESE
STARLINK-1092 2.9 23:45:58 10° NW 23:49:07 69° NE 23:52:14 10° ESE
Cosmos 1553 Rocket 4.3 23:43:06 10° SSW 23:49:08 75° W 23:55:16 10° N
STARLINK-1080 2.9 23:46:27 10° NW 23:49:34 70° NE 23:52:40 10° ESE
STARLINK-1090 2.9 23:46:54 10° NW 23:50:01 70° NE 23:53:07 10° ESE
STARLINK-1089 2.9 23:47:21 10° NW 23:50:28 71° NE 23:53:34 10° ESE
Orbus 7S? 2.4 23:47:46 10° NW 23:50:37 79° SW 23:53:01 10° SE
STARLINK-1107 2.9 23:47:48 10° NW 23:50:55 72° NE 23:54:01 10° ESE
STARLINK-1108 4.0 23:49:38 10° NW 23:53:38 52° NE 23:57:38 10° ESE
Cosmos 1331 Rocket 4.0 23:48:33 10° NNW 23:53:42 68° ENE 23:58:49 10° SSE
CZ-2C R/B 4.2 23:54:22 10° ENE 23:56:48 13° E 23:59:13 10° ESE
